カタログに戻る

BREEZE-M R/B

運用中MEO
NORAD 40278·ROCKET BODY·🇷🇺 Russia

打ち上げ Oct 21, 2014 から Baikonur Cosmodrome

Loading…

次のパス (今後24時間)

TLE

最新Source: Space-Track

元期: Sep 14, 2026, 11:03 UTC

1 40278U 14064B   26257.46049537 -.00000138  00000-0  00000-0 0  9999
2 40278   9.5287  61.6886 0581720 220.0350 135.6591  0.95221888 41372

AllMySatでBREEZE-M R/Bをリアルタイム追跡

Download on the App Store